• In Hungary
  • List of Countries
  • For 7 days
  • Water Temperature
  • Satellite Maps
  • Weather Map
  • News
  • Weather Widgets
  • user-avatar
    Login

    Hourly Weather Znamirowice

    Today, 19 July, Thursday

    Time Temperature Precipitation Wind Pressure Humidity
    00:00 +19°C° 0.2 mm 4 mps 731 mmHg 97%
    01:00 +19°C° 0 mm 3 mps 730 mmHg 98%
    02:00 +19°C° 0.2 mm 3 mps 731 mmHg 98%
    03:00 +19°C° 0.2 mm 3 mps 731 mmHg 97%
    04:00 +19°C° 0.2 mm 3 mps 731 mmHg 97%
    05:00 +19°C° 0.1 mm 3 mps 731 mmHg 96%
    06:00 +19°C° 0.1 mm 3 mps 731 mmHg 96%
    07:00 +19°C° 0 mm 3 mps 731 mmHg 95%
    08:00 +20°C° 0.2 mm 4 mps 732 mmHg 94%
    09:00 +20°C° 0.2 mm 4 mps 732 mmHg 93%
    10:00 +20°C° 0.2 mm 4 mps 732 mmHg 92%
    11:00 +20°C° 0.1 mm 4 mps 732 mmHg 90%
    12:00 +21°C° 0.1 mm 4 mps 732 mmHg 88%
    13:00 +21°C° 0.1 mm 4 mps 733 mmHg 87%
    14:00 +21°C° 0.1 mm 4 mps 733 mmHg 86%
    15:00 +21°C° 0.1 mm 4 mps 732 mmHg 86%
    16:00 +21°C° 0.1 mm 4 mps 732 mmHg 86%
    17:00 +21°C° 0.1 mm 4 mps 732 mmHg 88%
    18:00 +21°C° 0.1 mm 3 mps 732 mmHg 90%
    19:00 +20°C° 0.1 mm 3 mps 732 mmHg 91%
    20:00 +20°C° 0 mm 3 mps 732 mmHg 93%
    21:00 +19°C° 0 mm 3 mps 733 mmHg 95%
    22:00 +18°C° 0 mm 3 mps 733 mmHg 97%
    23:00 +18°C° 0 mm 3 mps 733 mmHg 97%

    Tomorrow, 20 July, Friday

    Time Temperature Precipitation Wind Pressure Humidity
    00:00 +18°C° 0 mm 3 mps 733 mmHg 97%
    01:00 +18°C° 0 mm 3 mps 733 mmHg 97%
    02:00 +18°C° 0.2 mm 3 mps 733 mmHg 97%
    03:00 +18°C° 0.2 mm 3 mps 733 mmHg 97%
    04:00 +18°C° 0.2 mm 3 mps 733 mmHg 97%
    05:00 +18°C° 0.4 mm 3 mps 733 mmHg 97%
    06:00 +18°C° 0.4 mm 3 mps 733 mmHg 96%
    07:00 +18°C° 0.4 mm 3 mps 733 mmHg 96%
    08:00 +19°C° 0.2 mm 3 mps 733 mmHg 95%
    09:00 +19°C° 0.2 mm 3 mps 734 mmHg 93%
    10:00 +19°C° 0.2 mm 4 mps 734 mmHg 91%
    11:00 +21°C° 0.1 mm 4 mps 734 mmHg 83%
    12:00 +23°C° 0.1 mm 4 mps 734 mmHg 75%
    13:00 +25°C° 0.1 mm 4 mps 733 mmHg 67%
    14:00 +25°C° 0.2 mm 4 mps 733 mmHg 67%
    15:00 +25°C° 0.2 mm 4 mps 733 mmHg 67%
    16:00 +26°C° 0.2 mm 4 mps 733 mmHg 67%
    17:00 +24°C° 0.2 mm 3 mps 733 mmHg 73%
    18:00 +22°C° 0.2 mm 3 mps 733 mmHg 78%
    19:00 +21°C° 0.2 mm 2 mps 733 mmHg 84%
    20:00 +20°C° 0 mm 2 mps 733 mmHg 87%
    21:00 +18°C° 0 mm 2 mps 734 mmHg 89%
    22:00 +17°C° 0 mm 2 mps 734 mmHg 92%
    23:00 +17°C° 0 mm 2 mps 734 mmHg 92%

    Day after tomorrow, 21 July, Saturday

    Time Temperature Precipitation Wind Pressure Humidity
    00:00 +17°C° 0 mm 2 mps 734 mmHg 93%
    01:00 +16°C° 0 mm 2 mps 734 mmHg 93%
    02:00 +16°C° 0 mm 2 mps 734 mmHg 93%
    03:00 +15°C° 0 mm 2 mps 734 mmHg 94%
    04:00 +15°C° 0 mm 2 mps 734 mmHg 94%
    05:00 +17°C° 0 mm 2 mps 734 mmHg 89%
    06:00 +19°C° 0 mm 1 mps 734 mmHg 84%
    07:00 +21°C° 0 mm 1 mps 734 mmHg 79%
    08:00 +22°C° 0 mm 1 mps 734 mmHg 73%
    09:00 +24°C° 0 mm 1 mps 734 mmHg 66%
    10:00 +25°C° 0 mm 1 mps 734 mmHg 60%
    11:00 +26°C° 0 mm 2 mps 734 mmHg 56%
    12:00 +27°C° 0 mm 2 mps 734 mmHg 53%
    13:00 +27°C° 0 mm 2 mps 734 mmHg 50%
    14:00 +27°C° 0 mm 2 mps 733 mmHg 51%
    15:00 +27°C° 0 mm 2 mps 733 mmHg 53%
    16:00 +27°C° 0 mm 2 mps 733 mmHg 55%
    17:00 +25°C° 0 mm 2 mps 733 mmHg 61%
    18:00 +24°C° 0 mm 1 mps 733 mmHg 68%
    19:00 +22°C° 0 mm 1 mps 733 mmHg 75%
    20:00 +21°C° 0 mm 1 mps 733 mmHg 78%
    21:00 +20°C° 0 mm 1 mps 733 mmHg 82%
    22:00 +16°C° 0 mm 0 mps 733 mmHg 85%
    23:00 +16°C° 0 mm 0 mps 733 mmHg 86%

    22 July, Sunday

    Time Temperature Precipitation Wind Pressure Humidity
    00:00 +16°C° 0 mm 0 mps 733 mmHg 87%
    01:00 +15°C° 0 mm 0 mps 733 mmHg 88%
    02:00 +15°C° 0 mm 0 mps 733 mmHg 89%
    03:00 +15°C° 0 mm 0 mps 732 mmHg 90%
    04:00 +14°C° 0 mm 0 mps 732 mmHg 90%
    05:00 +16°C° 0 mm 0 mps 732 mmHg 85%
    06:00 +18°C° 0 mm 0 mps 732 mmHg 79%
    07:00 +20°C° 0 mm 0 mps 732 mmHg 74%
    08:00 +23°C° 0 mm 1 mps 732 mmHg 70%
    09:00 +24°C° 0 mm 1 mps 732 mmHg 67%
    10:00 +25°C° 0 mm 2 mps 732 mmHg 63%
    11:00 +26°C° 0.4 mm 2 mps 732 mmHg 64%
    12:00 +26°C° 0.4 mm 2 mps 732 mmHg 65%
    13:00 +26°C° 0.4 mm 2 mps 731 mmHg 67%
    14:00 +26°C° 0.5 mm 2 mps 731 mmHg 67%
    15:00 +26°C° 0.5 mm 2 mps 731 mmHg 68%
    16:00 +26°C° 0.5 mm 2 mps 731 mmHg 68%
    17:00 +24°C° 0.3 mm 2 mps 731 mmHg 71%
    18:00 +23°C° 0.3 mm 1 mps 731 mmHg 75%
    19:00 +22°C° 0.3 mm 1 mps 731 mmHg 78%
    20:00 +21°C° 0 mm 1 mps 731 mmHg 80%
    21:00 +20°C° 0 mm 1 mps 731 mmHg 81%
    22:00 +19°C° 0 mm 1 mps 731 mmHg 83%
    23:00 +19°C° 0 mm 1 mps 731 mmHg 85%

    23 July, Monday

    Time Temperature Precipitation Wind Pressure Humidity
    00:00 +18°C° 0 mm 1 mps 731 mmHg 87%
    01:00 +16°C° 0 mm 1 mps 731 mmHg 89%
    02:00 +16°C° 0 mm 1 mps 731 mmHg 90%
    03:00 +16°C° 0 mm 1 mps 731 mmHg 91%
    04:00 +16°C° 0 mm 1 mps 731 mmHg 93%
    05:00 +18°C° 0 mm 1 mps 731 mmHg 90%
    06:00 +18°C° 0 mm 2 mps 731 mmHg 87%
    07:00 +20°C° 0 mm 2 mps 732 mmHg 84%
    08:00 +21°C° 0.1 mm 3 mps 732 mmHg 77%
    09:00 +24°C° 0.1 mm 3 mps 732 mmHg 71%
    10:00 +25°C° 0.1 mm 4 mps 732 mmHg 64%
    11:00 +25°C° 0.4 mm 4 mps 732 mmHg 65%
    12:00 +26°C° 0.4 mm 4 mps 732 mmHg 65%
    13:00 +26°C° 0.4 mm 4 mps 732 mmHg 66%
    14:00 +26°C° 0.7 mm 4 mps 732 mmHg 68%
    15:00 +25°C° 0.7 mm 4 mps 732 mmHg 71%
    16:00 +25°C° 0.7 mm 3 mps 732 mmHg 73%
    17:00 +24°C° 0.4 mm 3 mps 732 mmHg 77%
    18:00 +23°C° 0.4 mm 2 mps 732 mmHg 80%
    19:00 +21°C° 0.4 mm 2 mps 733 mmHg 84%
    20:00 +20°C° 0 mm 2 mps 733 mmHg 86%
    21:00 +19°C° 0 mm 2 mps 733 mmHg 88%
    22:00 +18°C° 0 mm 2 mps 733 mmHg 89%
    23:00 +17°C° 0 mm 2 mps 733 mmHg 91%

    24 July, Tuesday

    Time Temperature Precipitation Wind Pressure Humidity
    00:00 +18°C° 0 mm 1 mps 733 mmHg 92%
    01:00 +16°C° 0 mm 1 mps 733 mmHg 93%
    02:00 +16°C° 0 mm 1 mps 734 mmHg 94%
    03:00 +16°C° 0 mm 1 mps 734 mmHg 94%
    04:00 +16°C° 0 mm 1 mps 734 mmHg 95%
    05:00 +18°C° 0 mm 1 mps 734 mmHg 92%
    06:00 +20°C° 0 mm 1 mps 735 mmHg 88%
    07:00 +20°C° 0 mm 2 mps 735 mmHg 85%
    08:00 +21°C° 0 mm 2 mps 735 mmHg 78%
    09:00 +24°C° 0 mm 2 mps 735 mmHg 71%
    10:00 +25°C° 0 mm 3 mps 735 mmHg 64%
    11:00 +26°C° 0.1 mm 3 mps 735 mmHg 62%
    12:00 +27°C° 0.1 mm 3 mps 735 mmHg 60%
    13:00 +27°C° 0.1 mm 3 mps 735 mmHg 58%
    14:00 +27°C° 0.1 mm 3 mps 735 mmHg 60%
    15:00 +27°C° 0.1 mm 3 mps 735 mmHg 62%
    16:00 +26°C° 0.1 mm 3 mps 734 mmHg 64%
    17:00 +25°C° 0 mm 2 mps 735 mmHg 69%
    18:00 +24°C° 0 mm 2 mps 735 mmHg 74%
    19:00 +23°C° 0 mm 1 mps 735 mmHg 79%
    20:00 +21°C° 0 mm 1 mps 735 mmHg 82%
    21:00 +20°C° 0 mm 1 mps 735 mmHg 84%
    22:00 +17°C° 0 mm 0 mps 735 mmHg 86%
    23:00 +19°C° 0 mm 1 mps 735 mmHg 87%
    Show more